Argusville, ND (58005)

7:04 AM CST on February 07, 2016 (GMT -0600)
Harwood Triangle | | Change Station
CLOSE
Current Station
Personal Weather Station
Location: Harwood, ND
Elevation: 879 ft
Nearby Weather Stations
Active Advisory: Blizzard Warning

Elev 879 ft 46.98 °N, 96.88 °W | Updated 11 minutes ago

Overcast
Overcast
34.8 °F
Feels Like 28 °F
N
8.0
Wind Variable Wind from WNW
Gusts 11.0 mph

Today
High -- | Low -- °F
--% Chance of Precip.
Yesterday
High -- | Low -- °F
Precip. -- in
Pressure 29.62 in
Visibility 10.0 miles
Clouds Mostly Cloudy 6000 ft
Windchill 28 °F
Dew Point 27 °F
Humidity 74%
Rainfall 0.00 in
Snow Depth Not available.
7:45 AM 5:38 PM
Waning Crescent, 2% visible
METAR KFAR 071253Z 28018KT 10SM BKN060 02/M03 A2959 RMK AO2 PK WND 28029/1224 SLP031 T00221028
Pressure 29.62 in
Visibility 10.0 miles
Clouds Mostly Cloudy 6000 ft
Windchill 28 °F
Dew Point 27 °F
Humidity 74%
Rainfall 0.00 in
Snow Depth Not available.
7:45 AM 5:38 PM
Waning Crescent, 2% visible
METAR KFAR 071253Z 28018KT 10SM BKN060 02/M03 A2959 RMK AO2 PK WND 28029/1224 SLP031 T00221028

10-Day Weather Forecast

Almanac

Astronomy

Feb. 07, 2016 Rise Set
Actual Time
Civil Twilight
Nautical Twilight
Astronomical Twilight
Moon
Length of Visible Light
Length of Day
Tomorrow will be .
, % of the Moon is Illuminated

Today's Extremes

State Highs State Lows

Community

WunderPhotos

Upload Photos

1,891,189 photos uploaded!

WunderBlog® & News

Nearby

Air Quality

  Air Quality AQ Index Pollutant
Not available.

Snow Depth

Station Depth Elevation

Earthquake Activity

City Distance Mag. Time & Date
Minimum magnitude displayed is 2.5.

Coastal Water Temperatures

Place Temperature

Stations

Nearby Weather Stations

Station Location Temp. Windchill Dew Point Humidity Wind Precip. Elev Updated Type
                   

Watches & Warnings

Blizzard Warning
Issued: 4:22 AM CST Feb. 7, 2016 – National Weather Service

... Blizzard Warning remains in effect from 9 am this morning to
6 am CST Monday...

* timing... expect blizzard conditions to develop around 9 am
Sunday and then diminish around 6 am Monday.

* Winds / visibilities... winds gusting as high as 50 mph will
cause whiteout conditions in blowing snow. Significant drifting
of the snow is likely... especially in open areas.

* Snow accumulations... up to 1 to 3 inches.

* Impacts... travel will be very difficult.

Precautionary/preparedness actions...

A Blizzard Warning means severe winter weather conditions are
expected or occurring. Falling and blowing snow with strong winds
and poor visibilities are likely. This will lead to whiteout
conditions... making travel extremely dangerous. Do not travel. If
you must travel... have a winter survival kit with you. If you get
stranded... stay with your vehicle. The latest Road conditions for
the state you are calling from can be obtained by calling 5 1 1.